Voltar ao catálogo

CZ-4 DEB

AtivoSSO
NORAD 28072·DEBRIS·🇨🇳 China

Lançado Oct 14, 1999 de Taiyuan Satellite Launch Center

Loading…

Próximas Passagens (próximas 24 horas)

TLE

AtualizadoSource: Space-Track

Época: Sep 14, 2026, 10:29 UTC

1 28072U 99057NC  26257.43712956  .00000831  00000-0  22584-3 0  9994
2 28072  98.5540 323.2551 0089287 111.8775 261.8794 14.47904183232349

Acompanhe CZ-4 DEB em tempo real com AllMySat

Download on the App Store